sat.trackr.live / text

‹ back to catalog

STARLINK-5788

NORAD 57148 · 2023-090AZ

PAYLOAD ACTIVE UNKNOWN

§ Identity

Operator
Country
US
Launch date
2023-06-23
Launch site
AFETR
Launch vehicle
Mass (kg)
RCS (m²)

Purposes: comms

External: N2YO · Heavens-Above · Gunter

§ Orbital elements

Epoch: 2026-09-20T07:21:30.849120Z

Period
94.27 min
Inclination
42.9995°
Eccentricity
0.0000851
Mean motion
15.27562741 rev/d
Perigee alt
482.5 km
Apogee alt
483.7 km
Semi-major
6,861.2 km
B*
-2.1156e-5
RAAN
244.5734°
Arg perigee
254.1819°
Mean anomaly
105.8938°
Rev number
18,011

§ Raw data

STARLINK-57881 57148U 23090AZ  26263.30660705 -.00000844  00000+0 -21156-4 0  99912 57148  42.9995 244.5734 0000851 254.1819 105.8938 15.27562741180113

JSON: /api/v1/satellites/57148 · /tle

For live sub-satellite position, see the globe view (requires WebGL).

§ Visibility from observer

Set your observer location to see the next 7 days of passes ≥ 10°. The values pass through the URL so the page stays shareable.

No JS? Fill the form by hand. The geolocation button needs JavaScript.